パンスターズ彗星

C/2015 M3 ( PanSTARRS )

English version
Home page
Updated on November 13, 2016

---------------------------------------------------------------------

・ プロフィール

発見日 2015年6月29日
発見光度 20.1等
発見者 Pan-STARRS 1 telescope (Haleakala)

・ 写真集

・ 軌道要素

Epoch 2015 Sept. 15.0 TT = JDT 2457280.5
T 2015 Aug. 26.23227 TT                                 MPCW
q   3.5524120            (2000.0)            P               Q
z  +0.0075197      Peri.  123.76257     +0.24093622     +0.80075855
 +/-0.0000019      Node   143.09285     -0.85673170     -0.09001698
e   0.9732870      Incl.   65.95106     +0.45602690     -0.59218467
From 141 observations 2015 June 29-2016 Oct. 29, mean residual 0".4.

・ 光度変化

        m1 = 10.7 + 5 logΔ + 10.0 log r(t - 120)

---------------------------------------------------------------------

軌道要素はM.P.E.C. 2016-V116に掲載されたものです。
光度グラフはComet for Windowsで作成したものです。

---------------------------------------------------------------------

Copyright(C) Seiichi Yoshida (comet@aerith.net). All rights reserved.